When you browse on this site, cookies collect data to enhance your experience and personalize the content and advertising you see.
Visit our Privacy Policy to learn more. By continuing to use the site, you agree to this use of cookies and data.
  • In United Kingdom
  • List of Countries
  • For 7 days
  • Water Temperature
  • Satellite Maps
  • Weather Map
  • Weather Widgets
  • user-avatar
    Login

    Hourly Weather Inverness

    Today, 20 June, Thursday

    Time Temperature Precipitation Wind Pressure Humidity
    00:00 +9°C° 0 mm 2 mps 748 mmHg 87%
    01:00 +9°C° 0 mm 2 mps 748 mmHg 88%
    02:00 +9°C° 0 mm 2 mps 748 mmHg 89%
    03:00 +8°C° 0 mm 2 mps 747 mmHg 90%
    04:00 +9°C° 0 mm 2 mps 747 mmHg 86%
    05:00 +10°C° 0 mm 3 mps 747 mmHg 81%
    06:00 +10°C° 0 mm 3 mps 747 mmHg 76%
    07:00 +11°C° 0 mm 4 mps 747 mmHg 72%
    08:00 +12°C° 0 mm 4 mps 747 mmHg 67%
    09:00 +13°C° 0 mm 5 mps 747 mmHg 63%
    10:00 +13°C° 0.2 mm 5 mps 748 mmHg 67%
    11:00 +13°C° 0.2 mm 5 mps 748 mmHg 71%
    12:00 +13°C° 0.2 mm 6 mps 748 mmHg 75%
    13:00 +13°C° 0.1 mm 6 mps 748 mmHg 71%
    14:00 +13°C° 0.1 mm 6 mps 749 mmHg 66%
    15:00 +14°C° 0.1 mm 7 mps 749 mmHg 62%
    16:00 +12°C° 0 mm 7 mps 749 mmHg 62%
    17:00 +12°C° 0 mm 7 mps 750 mmHg 63%
    18:00 +11°C° 0 mm 7 mps 750 mmHg 63%
    19:00 +10°C° 0 mm 6 mps 751 mmHg 69%
    20:00 +9°C° 0 mm 5 mps 751 mmHg 74%
    21:00 +8°C° 0 mm 4 mps 752 mmHg 80%
    22:00 +8°C° 0.1 mm 4 mps 752 mmHg 81%
    23:00 +8°C° 0.1 mm 4 mps 752 mmHg 83%

    Tomorrow, 21 June, Friday

    Time Temperature Precipitation Wind Pressure Humidity
    00:00 +7°C° 0.1 mm 4 mps 753 mmHg 84%
    01:00 +7°C° 0 mm 4 mps 753 mmHg 85%
    02:00 +7°C° 0 mm 4 mps 753 mmHg 86%
    03:00 +6°C° 0 mm 4 mps 753 mmHg 87%
    04:00 +7°C° 0 mm 4 mps 754 mmHg 84%
    05:00 +8°C° 0 mm 5 mps 754 mmHg 81%
    06:00 +8°C° 0 mm 5 mps 754 mmHg 78%
    07:00 +9°C° 0 mm 5 mps 755 mmHg 72%
    08:00 +10°C° 0 mm 6 mps 755 mmHg 67%
    09:00 +11°C° 0 mm 6 mps 755 mmHg 61%
    10:00 +13°C° 0.1 mm 6 mps 756 mmHg 59%
    11:00 +14°C° 0.1 mm 6 mps 756 mmHg 58%
    12:00 +14°C° 0.1 mm 6 mps 757 mmHg 56%
    13:00 +14°C° 0.1 mm 6 mps 757 mmHg 56%
    14:00 +15°C° 0.1 mm 6 mps 757 mmHg 55%
    15:00 +15°C° 0.1 mm 6 mps 758 mmHg 55%
    16:00 +14°C° 0.1 mm 5 mps 758 mmHg 58%
    17:00 +14°C° 0.1 mm 5 mps 759 mmHg 61%
    18:00 +13°C° 0.1 mm 4 mps 759 mmHg 64%
    19:00 +12°C° 0 mm 3 mps 759 mmHg 71%
    20:00 +10°C° 0 mm 2 mps 760 mmHg 77%
    21:00 +9°C° 0 mm 2 mps 760 mmHg 83%
    22:00 +8°C° 0 mm 2 mps 760 mmHg 85%
    23:00 +8°C° 0 mm 2 mps 761 mmHg 87%

    Day after tomorrow, 22 June, Saturday

    Time Temperature Precipitation Wind Pressure Humidity
    00:00 +7°C° 0 mm 2 mps 761 mmHg 89%
    01:00 +7°C° 0 mm 2 mps 761 mmHg 90%
    02:00 +6°C° 0 mm 2 mps 761 mmHg 90%
    03:00 +6°C° 0 mm 2 mps 761 mmHg 90%
    04:00 +8°C° 0 mm 1 mps 761 mmHg 85%
    05:00 +9°C° 0 mm 1 mps 761 mmHg 79%
    06:00 +11°C° 0 mm 1 mps 761 mmHg 73%
    07:00 +11°C° 0.1 mm 1 mps 761 mmHg 75%
    08:00 +11°C° 0.1 mm 1 mps 761 mmHg 77%
    09:00 +12°C° 0.1 mm 1 mps 761 mmHg 79%
    10:00 +12°C° 0.1 mm 1 mps 761 mmHg 78%
    11:00 +13°C° 0.1 mm 2 mps 761 mmHg 77%
    12:00 +14°C° 0.1 mm 2 mps 762 mmHg 77%
    13:00 +15°C° 0.1 mm 2 mps 762 mmHg 73%
    14:00 +16°C° 0.1 mm 2 mps 761 mmHg 69%
    15:00 +17°C° 0.1 mm 2 mps 761 mmHg 65%
    16:00 +18°C° 0.3 mm 1 mps 761 mmHg 69%
    17:00 +16°C° 0.3 mm 1 mps 761 mmHg 74%
    18:00 +16°C° 0.3 mm 1 mps 761 mmHg 78%
    19:00 +15°C° 0.1 mm 1 mps 762 mmHg 82%
    20:00 +14°C° 0.1 mm 1 mps 762 mmHg 86%
    21:00 +13°C° 0.1 mm 1 mps 762 mmHg 89%
    22:00 +13°C° 0 mm 1 mps 762 mmHg 90%
    23:00 +11°C° 0 mm 0 mps 762 mmHg 90%

    23 June, Sunday

    Time Temperature Precipitation Wind Pressure Humidity
    00:00 +11°C° 0 mm 0 mps 762 mmHg 90%
    01:00 +11°C° 0 mm 0 mps 762 mmHg 91%
    02:00 +11°C° 0 mm 0 mps 762 mmHg 91%
    03:00 +11°C° 0 mm 0 mps 762 mmHg 92%
    04:00 +11°C° 0 mm 0 mps 762 mmHg 91%
    05:00 +12°C° 0 mm 0 mps 762 mmHg 91%
    06:00 +12°C° 0 mm 0 mps 762 mmHg 90%
    07:00 +14°C° 0 mm 1 mps 762 mmHg 87%
    08:00 +15°C° 0 mm 1 mps 763 mmHg 84%
    09:00 +16°C° 0 mm 1 mps 763 mmHg 81%
    10:00 +16°C° 0.3 mm 2 mps 763 mmHg 78%
    11:00 +17°C° 0.3 mm 2 mps 763 mmHg 76%
    12:00 +18°C° 0.3 mm 3 mps 763 mmHg 74%
    13:00 +18°C° 0.5 mm 3 mps 763 mmHg 74%
    14:00 +18°C° 0.5 mm 3 mps 763 mmHg 74%
    15:00 +18°C° 0.5 mm 3 mps 763 mmHg 74%
    16:00 +17°C° 0.3 mm 2 mps 763 mmHg 79%
    17:00 +17°C° 0.3 mm 2 mps 763 mmHg 83%
    18:00 +16°C° 0.3 mm 1 mps 763 mmHg 87%
    19:00 +15°C° 0.1 mm 1 mps 764 mmHg 89%
    20:00 +15°C° 0.1 mm 1 mps 764 mmHg 91%
    21:00 +13°C° 0.1 mm 0 mps 764 mmHg 93%
    22:00 +13°C° 0 mm 0 mps 764 mmHg 93%
    23:00 +13°C° 0 mm 1 mps 765 mmHg 94%

    24 June, Monday

    Time Temperature Precipitation Wind Pressure Humidity
    00:00 +13°C° 0 mm 1 mps 765 mmHg 94%
    01:00 +12°C° 0 mm 1 mps 765 mmHg 94%
    02:00 +12°C° 0 mm 1 mps 765 mmHg 94%
    03:00 +11°C° 0 mm 1 mps 765 mmHg 95%
    04:00 +12°C° 0 mm 1 mps 765 mmHg 94%
    05:00 +12°C° 0 mm 1 mps 765 mmHg 93%
    06:00 +13°C° 0 mm 1 mps 765 mmHg 92%
    07:00 +14°C° 0 mm 2 mps 765 mmHg 85%
    08:00 +14°C° 0 mm 3 mps 765 mmHg 78%
    09:00 +15°C° 0 mm 4 mps 765 mmHg 71%
    10:00 +15°C° 0 mm 4 mps 765 mmHg 71%
    11:00 +17°C° 0 mm 4 mps 765 mmHg 70%
    12:00 +17°C° 0 mm 4 mps 765 mmHg 70%
    13:00 +15°C° 1 mm 4 mps 765 mmHg 78%
    14:00 +14°C° 1 mm 4 mps 765 mmHg 87%
    15:00 +13°C° 1 mm 4 mps 765 mmHg 95%
    16:00 +13°C° 1.6 mm 4 mps 765 mmHg 96%
    17:00 +13°C° 1.6 mm 4 mps 766 mmHg 96%
    18:00 +12°C° 1.6 mm 4 mps 766 mmHg 97%
    19:00 +12°C° 1.3 mm 5 mps 766 mmHg 97%
    20:00 +12°C° 1.3 mm 5 mps 767 mmHg 97%
    21:00 +12°C° 1.3 mm 5 mps 767 mmHg 97%
    22:00 +12°C° 0.3 mm 5 mps 767 mmHg 97%
    23:00 +10°C° 0.3 mm 5 mps 767 mmHg 97%

    25 June, Tuesday

    Time Temperature Precipitation Wind Pressure Humidity
    00:00 +11°C° 0.3 mm 4 mps 767 mmHg 97%
    01:00 +11°C° 0.1 mm 4 mps 767 mmHg 96%
    02:00 +11°C° 0.1 mm 4 mps 767 mmHg 96%
    03:00 +11°C° 0.1 mm 4 mps 767 mmHg 96%
    04:00 +11°C° 0 mm 4 mps 768 mmHg 95%
    05:00 +11°C° 0 mm 4 mps 768 mmHg 94%
    06:00 +11°C° 0 mm 4 mps 768 mmHg 94%
    07:00 +12°C° 0 mm 4 mps 768 mmHg 90%
    08:00 +13°C° 0 mm 5 mps 768 mmHg 86%
    09:00 +13°C° 0 mm 5 mps 768 mmHg 83%
    10:00 +14°C° 0 mm 5 mps 768 mmHg 81%
    11:00 +14°C° 0 mm 5 mps 768 mmHg 79%
    12:00 +14°C° 0 mm 5 mps 768 mmHg 76%
    13:00 +14°C° 0.1 mm 5 mps 768 mmHg 80%
    14:00 +13°C° 0.1 mm 5 mps 768 mmHg 84%
    15:00 +13°C° 0.1 mm 4 mps 768 mmHg 88%
    16:00 +13°C° 0 mm 4 mps 768 mmHg 88%
    17:00 +13°C° 0 mm 4 mps 767 mmHg 89%
    18:00 +13°C° 0 mm 4 mps 767 mmHg 89%
    19:00 +12°C° 0 mm 4 mps 768 mmHg 91%
    20:00 +12°C° 0 mm 4 mps 768 mmHg 92%
    21:00 +11°C° 0 mm 3 mps 768 mmHg 94%
    22:00 +11°C° 0 mm 3 mps 768 mmHg 94%
    23:00 +11°C° 0 mm 3 mps 768 mmHg 95%
    Show more